Weather History for Warrensburg, MO

Change the Weather History Date:

Monday, December 10, 2012

  Actual Average (KSZL) Record (KSZL)
Temperature  
Mean Temperature 24 °F -  
Max Temperature 30 °F 43 °F 69 °F (1996)
Min Temperature 19 °F 26 °F 10 °F (2013)
Degree Days  
Heating Degree Days 40    
Moisture  
Dew Point 15 °F    
Average Humidity 68    
Maximum Humidity 80    
Minimum Humidity 59    
Precipitation  
Precipitation 0.00 in - - ()
Sea Level Pressure  
Sea Level Pressure 30.04 in    
Wind  
Wind Speed 10 mph (West)    
Max Wind Speed 17 mph    
Max Gust Speed 23 mph    
Visibility 10 miles    
Events      
Averages and records for this station are not official NWS values.
T = Trace of Precipitation, MM = Missing Value Source: NWS Daily Summary

Daily Weather History Graph

Daily Weather History Graph

Search for Another Location

Airport:

Trip Planner

Search our weather history database for the weather conditions in past years. The results will help you decide how hot, cold, wet, or windy it might be!

Date:

Astronomy

Dec. 10, 2012 Rise Set
Actual Time 7:22 AM CST 4:53 PM CST
Civil Twilight 6:53 AM CST 5:23 PM CST
Nautical Twilight 6:19 AM CST 5:56 PM CST
Astronomical Twilight 5:47 AM CST 6:28 PM CST
Moon 4:08 AM CST (12/10) 2:42 PM CST (12/10)
Length of Visible Light 10h 30m
Length of Day
9h 30m
Waning Crescent, 10% of the Moon is Illuminated
Dec 10
Waning Crescent
Dec 13
New
Dec 19
First Quarter
Dec 28
Full
Jan 4
Last Quarter

Hourly Weather History & Observations

Time (CST) Temp. Windchill Dew Point Humidity Pressure Visibility Wind Dir Wind Speed Gust Speed Precip Events Conditions
12:15 AM 23.0 °F 9.2 °F 12.2 °F 63% 30.05 in 10.0 mi WNW 17.3 mph 23.0 mph N/A   Clear
12:35 AM 23.0 °F 11.1 °F 12.2 °F 63% 30.05 in 10.0 mi WNW 12.7 mph 20.7 mph N/A   Clear
12:55 AM 21.2 °F 11.7 °F 12.2 °F 68% 30.04 in 10.0 mi WNW 8.1 mph - N/A   Scattered Clouds
1:15 AM 21.2 °F 12.6 °F 12.2 °F 68% 30.04 in 10.0 mi WNW 6.9 mph - N/A   Mostly Cloudy
1:35 AM 21.2 °F 10.1 °F 12.2 °F 68% 30.02 in 10.0 mi WNW 10.4 mph 17.3 mph N/A   Overcast
1:55 AM 23.0 °F 11.7 °F 12.2 °F 63% 30.02 in 10.0 mi WNW 11.5 mph 17.3 mph N/A   Overcast
2:15 AM 21.2 °F 9.5 °F 12.2 °F 68% 30.03 in 10.0 mi WNW 11.5 mph - N/A   Overcast
2:35 AM 21.2 °F 10.9 °F 14.0 °F 74% 30.03 in 10.0 mi WNW 9.2 mph - N/A   Overcast
2:55 AM 21.2 °F 8.9 °F 12.2 °F 68% 30.02 in 10.0 mi WNW 12.7 mph 17.3 mph N/A   Overcast
3:15 AM 21.2 °F 12.6 °F 14.0 °F 74% 30.01 in 10.0 mi WNW 6.9 mph - N/A   Overcast
3:35 AM 21.2 °F 9.5 °F 12.2 °F 68% 30.02 in 10.0 mi WNW 11.5 mph 16.1 mph N/A   Overcast
3:55 AM 21.2 °F 8.9 °F 12.2 °F 68% 30.02 in 10.0 mi WNW 12.7 mph 17.3 mph N/A   Overcast
4:15 AM 21.2 °F 10.1 °F 12.2 °F 68% 30.03 in 10.0 mi WNW 10.4 mph 18.4 mph N/A   Overcast
4:35 AM 21.2 °F 10.1 °F 12.2 °F 68% 30.03 in 10.0 mi WNW 10.4 mph 17.3 mph N/A   Overcast
4:55 AM 21.2 °F 11.7 °F 12.2 °F 68% 30.03 in 10.0 mi WNW 8.1 mph - N/A   Overcast
5:15 AM 21.2 °F 8.3 °F 12.2 °F 68% 30.03 in 10.0 mi WNW 13.8 mph - N/A   Overcast
5:35 AM 21.2 °F 10.9 °F 12.2 °F 68% 30.04 in 10.0 mi WNW 9.2 mph 17.3 mph N/A   Overcast
6:15 AM 21.2 °F 11.7 °F 14.0 °F 74% 30.05 in 10.0 mi WNW 8.1 mph - N/A   Overcast
6:55 AM 21.2 °F 9.5 °F 14.0 °F 74% 30.06 in 10.0 mi WNW 11.5 mph - N/A   Overcast
7:15 AM 21.2 °F 9.5 °F 12.2 °F 68% 30.06 in 10.0 mi WNW 11.5 mph - N/A   Overcast
7:35 AM 21.2 °F 10.9 °F 12.2 °F 68% 30.08 in 10.0 mi WNW 9.2 mph - N/A   Overcast
7:55 AM 21.2 °F 12.6 °F 12.2 °F 68% 30.08 in 10.0 mi West 6.9 mph - N/A   Overcast
8:15 AM 23.0 °F 11.7 °F 12.2 °F 63% 30.08 in 10.0 mi WNW 11.5 mph 16.1 mph N/A   Overcast
8:35 AM 23.0 °F 12.4 °F 12.2 °F 63% 30.08 in 10.0 mi WNW 10.4 mph - N/A   Overcast
8:55 AM 23.0 °F 13.9 °F 12.2 °F 63% 30.08 in 10.0 mi West 8.1 mph - N/A   Overcast
9:15 AM 23.0 °F 13.9 °F 14.0 °F 68% 30.07 in 10.0 mi WNW 8.1 mph - N/A   Overcast
9:35 AM 24.8 °F 15.3 °F 14.0 °F 64% 30.08 in 10.0 mi NW 9.2 mph - N/A   Overcast
9:55 AM 24.8 °F 14.0 °F 14.0 °F 64% 30.07 in 10.0 mi WNW 11.5 mph - N/A   Overcast
10:35 AM 26.6 °F 20.0 °F 14.0 °F 59% 30.06 in 10.0 mi West 5.8 mph - N/A   Overcast
10:55 AM 26.6 °F 18.2 °F 15.8 °F 64% 30.07 in 10.0 mi WNW 8.1 mph - N/A   Overcast
11:15 AM 26.6 °F 17.5 °F 15.8 °F 64% 30.07 in 10.0 mi WNW 9.2 mph - N/A   Overcast
12:15 PM 28.4 °F 21.2 °F 17.6 °F 64% 30.04 in 10.0 mi West 6.9 mph - N/A   Overcast
12:35 PM 30.2 °F 23.4 °F 17.6 °F 60% 30.04 in 10.0 mi WNW 6.9 mph - N/A   Overcast
12:55 PM 30.2 °F 21.3 °F 17.6 °F 60% 30.04 in 10.0 mi West 10.4 mph - N/A   Overcast
1:15 PM 30.2 °F 22.6 °F 19.4 °F 64% 30.03 in 10.0 mi NNW 8.1 mph - N/A   Mostly Cloudy
1:35 PM 30.2 °F 21.9 °F 19.4 °F 64% 30.03 in 10.0 mi West 9.2 mph - N/A   Mostly Cloudy
1:55 PM 30.2 °F 22.6 °F 17.6 °F 60% 30.02 in 10.0 mi WNW 8.1 mph - N/A   Scattered Clouds
2:35 PM 30.2 °F 23.4 °F 17.6 °F 60% 30.02 in 10.0 mi WNW 6.9 mph - N/A   Clear
3:15 PM 30.2 °F 25.4 °F 17.6 °F 60% 30.02 in 10.0 mi WSW 4.6 mph - N/A   Clear
3:35 PM 30.2 °F 23.4 °F 17.6 °F 60% 30.03 in 10.0 mi West 6.9 mph - N/A   Clear
3:55 PM 30.2 °F 25.4 °F 17.6 °F 60% 30.02 in 10.0 mi WSW 4.6 mph - N/A   Clear
4:15 PM 30.2 °F 24.3 °F 17.6 °F 60% 30.03 in 10.0 mi West 5.8 mph - N/A   Clear
4:35 PM 28.4 °F 22.2 °F 17.6 °F 64% 30.03 in 10.0 mi WSW 5.8 mph - N/A   Clear
4:55 PM 28.4 °F 22.2 °F 17.6 °F 64% 30.02 in 10.0 mi WSW 5.8 mph - N/A   Clear
5:15 PM 26.6 °F 20.0 °F 17.6 °F 69% 30.02 in 10.0 mi WSW 5.8 mph - N/A   Clear
5:35 PM 24.8 °F 19.1 °F 17.6 °F 74% 30.03 in 10.0 mi WSW 4.6 mph - N/A   Clear
5:55 PM 24.8 °F 20.5 °F 15.8 °F 69% 30.03 in 10.0 mi SW 3.5 mph - N/A   Clear
6:15 PM 24.8 °F 17.9 °F 15.8 °F 69% 30.03 in 10.0 mi SSW 5.8 mph - N/A   Clear
6:35 PM 23.0 °F 17.0 °F 15.8 °F 74% 30.02 in 10.0 mi SSW 4.6 mph - N/A   Clear
6:55 PM 23.0 °F 17.0 °F 15.8 °F 74% 30.03 in 10.0 mi SSW 4.6 mph - N/A   Clear
7:15 PM 23.0 °F 17.0 °F 15.8 °F 74% 30.03 in 10.0 mi SSW 4.6 mph - N/A   Clear
7:35 PM 23.0 °F 17.0 °F 15.8 °F 74% 30.03 in 10.0 mi South 4.6 mph - N/A   Clear
7:55 PM 23.0 °F 17.0 °F 14.0 °F 68% 30.04 in 10.0 mi South 4.6 mph - N/A   Clear
8:15 PM 21.2 °F 14.9 °F 14.0 °F 74% 30.05 in 10.0 mi SSW 4.6 mph - N/A   Clear
8:35 PM 21.2 °F 13.6 °F 14.0 °F 74% 30.05 in 10.0 mi SSW 5.8 mph - N/A   Clear
8:55 PM 21.2 °F 14.9 °F 14.0 °F 74% 30.04 in 10.0 mi South 4.6 mph - N/A   Clear
9:15 PM 21.2 °F 14.9 °F 14.0 °F 74% 30.05 in 10.0 mi South 4.6 mph - N/A   Clear
9:55 PM 19.4 °F 12.8 °F 14.0 °F 80% 30.05 in 10.0 mi South 4.6 mph - N/A   Clear
10:15 PM 19.4 °F 14.3 °F 14.0 °F 80% 30.05 in 10.0 mi South 3.5 mph - N/A   Clear
10:35 PM 19.4 °F 11.5 °F 14.0 °F 80% 30.05 in 10.0 mi South 5.8 mph - N/A   Clear
10:55 PM 21.2 °F 12.6 °F 14.0 °F 74% 30.05 in 10.0 mi South 6.9 mph - N/A   Clear
11:15 PM 21.2 °F 13.6 °F 14.0 °F 74% 30.05 in 10.0 mi South 5.8 mph - N/A   Clear
11:35 PM 19.4 °F 10.4 °F 14.0 °F 80% 30.04 in 10.0 mi SSE 6.9 mph - N/A   Clear
11:55 PM 19.4 °F 10.4 °F 14.0 °F 80% 30.04 in 10.0 mi South 6.9 mph - N/A   Clear